TimeEST,TemperatureF,Dew PointF,Humidity,Sea Level PressureIn,VisibilityMPH,Wind Direction,Wind SpeedMPH,Gust SpeedMPH,PrecipitationIn,Events,Conditions,WindDirDegrees,DateUTC
12:15 AM,12.2,8.6,85,29.50,1.5,Calm,Calm,-,0.01,Snow,Light Snow,0,2013-01-01 05:15:00
12:25 AM,12.2,10.4,92,29.49,2.0,Calm,Calm,-,0.01,Snow,Light Snow,0,2013-01-01 05:25:00
12:33 AM,12.2,10.4,92,29.49,1.5,Calm,Calm,-,0.01,Snow,Light Snow,0,2013-01-01 05:33:00
12:40 AM,12.2,10.4,92,29.48,1.2,Calm,Calm,-,0.02,Snow,Light Snow,0,2013-01-01 05:40:00
12:50 AM,12.2,8.6,85,29.48,1.5,Calm,Calm,-,0.02,Snow,Light Snow,0,2013-01-01 05:50:00
12:54 AM,12.9,9.0,84,29.52,1.5,Calm,Calm,-,0.02,Snow,Light Snow,0,2013-01-01 05:54:00
1:01 AM,12.2,8.6,85,29.47,1.2,Calm,Calm,-,0.00,Snow,Light Snow,0,2013-01-01 06:01:00
1:30 AM,14.0,10.4,86,29.46,0.8,Calm,Calm,-,0.00,Snow,Light Snow,0,2013-01-01 06:30:00
1:38 AM,14.0,10.4,86,29.46,1.5,East,3.5,-,0.01,Snow,Light Snow,100,2013-01-01 06:38:00
1:54 AM,14.0,10.9,88,29.50,1.8,Calm,Calm,-,0.01,Snow,Light Snow,0,2013-01-01 06:54:00
2:14 AM,14.0,12.2,93,29.44,2.0,Calm,Calm,-,0.00,Snow,Light Snow,0,2013-01-01 07:14:00
2:35 AM,15.8,12.2,86,29.44,6.0,South,3.5,-,0.00,Snow,Light Snow,170,2013-01-01 07:35:00
2:54 AM,15.1,12.9,91,29.47,10.0,SSE,3.5,-,0.00,,Overcast,160,2013-01-01 07:54:00
3:52 AM,15.8,12.2,86,29.41,2.5,Calm,Calm,-,0.00,Snow,Light Snow,0,2013-01-01 08:52:00
3:54 AM,16.0,12.9,88,29.45,3.0,Calm,Calm,-,0.00,Snow,Light Snow,0,2013-01-01 08:54:00
4:02 AM,15.8,12.2,86,29.41,8.0,Calm,Calm,-,0.00,,Overcast,0,2013-01-01 09:02:00
4:54 AM,16.0,12.9,88,29.44,10.0,Calm,Calm,-,0.00,,Overcast,0,2013-01-01 09:54:00
5:35 AM,14.0,10.4,86,29.40,10.0,Calm,Calm,-,N/A,,Scattered Clouds,0,2013-01-01 10:35:00
5:54 AM,12.9,10.0,88,29.45,7.0,Calm,Calm,-,N/A,,Partly Cloudy,0,2013-01-01 10:54:00
6:54 AM,14.0,10.0,84,29.46,6.0,Calm,Calm,-,N/A,,Partly Cloudy,0,2013-01-01 11:54:00
7:32 AM,12.2,10.4,92,29.42,1.8,WSW,3.5,-,N/A,Snow,Light Snow,240,2013-01-01 12:32:00
7:46 AM,15.8,12.2,86,29.43,3.0,Calm,Calm,-,0.00,Snow,Light Snow,0,2013-01-01 12:46:00
7:54 AM,15.1,12.0,88,29.48,2.5,Calm,Calm,-,0.00,Snow,Light Snow,0,2013-01-01 12:54:00
8:01 AM,15.8,12.2,86,29.44,3.0,WNW,3.5,-,0.00,Snow,Light Snow,290,2013-01-01 13:01:00
8:09 AM,17.6,12.2,79,29.44,2.5,WNW,3.5,-,0.00,Snow,Light Snow,290,2013-01-01 13:09:00
8:16 AM,19.4,15.8,86,29.44,3.0,WNW,6.9,-,0.00,Snow,Light Snow,290,2013-01-01 13:16:00
8:22 AM,19.4,15.8,86,29.45,1.8,WNW,8.1,-,0.00,Snow,Light Snow,300,2013-01-01 13:22:00
8:43 AM,17.6,14.0,86,29.47,1.0,NNW,16.1,-,0.00,Snow,Light Snow,330,2013-01-01 13:43:00
8:51 AM,17.6,12.2,79,29.47,2.0,NNW,15.0,-,0.00,Snow,Light Snow,330,2013-01-01 13:51:00
8:54 AM,17.1,12.0,81,29.52,2.5,NNW,15.0,-,0.00,Snow,Light Snow,330,2013-01-01 13:54:00
9:02 AM,15.8,12.2,86,29.47,4.0,NW,13.8,23.0,0.00,Snow,Light Snow,320,2013-01-01 14:02:00
9:20 AM,17.6,10.4,73,29.48,10.0,NW,17.3,26.5,0.00,,Mostly Cloudy,310,2013-01-01 14:20:00
9:54 AM,17.1,6.1,62,29.55,10.0,WNW,13.8,23.0,0.00,,Partly Cloudy,300,2013-01-01 14:54:00
10:54 AM,16.0,5.0,62,29.55,10.0,WNW,10.4,23.0,N/A,,Mostly Cloudy,300,2013-01-01 15:54:00
11:54 AM,16.0,1.9,54,29.54,10.0,WNW,15.0,24.2,0.00,,Clear,290,2013-01-01 16:54:00
12:54 PM,15.1,1.9,56,29.53,10.0,WNW,16.1,24.2,N/A,,Mostly Cloudy,300,2013-01-01 17:54:00
1:54 PM,14.0,1.0,56,29.55,10.0,WNW,11.5,20.7,N/A,,Mostly Cloudy,300,2013-01-01 18:54:00
2:54 PM,12.0,3.0,67,29.56,10.0,WNW,6.9,-,N/A,,Mostly Cloudy,290,2013-01-01 19:54:00
3:06 PM,12.2,3.2,67,29.52,4.0,WNW,10.4,21.9,0.00,Snow,Light Snow,290,2013-01-01 20:06:00
3:54 PM,10.0,1.9,70,29.57,9.0,West,6.9,18.4,0.00,,Overcast,280,2013-01-01 20:54:00
4:11 PM,8.6,-0.4,67,29.53,10.0,West,10.4,20.7,N/A,,Scattered Clouds,280,2013-01-01 21:11:00
4:42 PM,8.6,-0.4,67,29.54,10.0,West,9.2,17.3,N/A,,Mostly Cloudy,260,2013-01-01 21:42:00
4:54 PM,8.1,-2.0,64,29.60,10.0,West,13.8,21.9,N/A,,Mostly Cloudy,280,2013-01-01 21:54:00
5:49 PM,6.8,-2.2,67,29.55,10.0,West,11.5,19.6,N/A,,Mostly Cloudy,260,2013-01-01 22:49:00
5:54 PM,6.1,-2.0,69,29.61,10.0,West,10.4,19.6,N/A,,Mostly Cloudy,260,2013-01-01 22:54:00
6:20 PM,5.0,-2.2,72,29.56,10.0,West,8.1,-,N/A,,Scattered Clouds,270,2013-01-01 23:20:00
6:54 PM,5.0,-2.9,70,29.63,10.0,WNW,6.9,-,N/A,,Overcast,290,2013-01-01 23:54:00
7:17 PM,5.0,-2.2,72,29.58,7.0,WNW,5.8,-,N/A,,Mostly Cloudy,290,2013-01-02 00:17:00
7:31 PM,3.2,-4.0,72,29.59,10.0,WNW,8.1,-,N/A,,Partly Cloudy,300,2013-01-02 00:31:00
7:54 PM,3.9,-5.1,66,29.64,10.0,WNW,6.9,-,N/A,,Clear,290,2013-01-02 00:54:00
8:54 PM,1.9,-7.1,66,29.64,10.0,WNW,5.8,-,N/A,,Clear,290,2013-01-02 01:54:00
9:54 PM,1.0,-7.1,69,29.65,10.0,WNW,6.9,-,N/A,,Clear,290,2013-01-02 02:54:00
10:54 PM,1.0,-7.1,69,29.65,10.0,WNW,8.1,-,N/A,,Clear,290,2013-01-02 03:54:00
11:54 PM,1.0,-8.0,66,29.65,10.0,WNW,10.4,20.7,N/A,,Partly Cloudy,290,2013-01-02 04:54:00